Location: Fredericton
(45.9636°N, 66.6431°W)
Time: 21:44:52
(UTC-04:00)

ISS - Pass Details

Date: 26 October 2021
Orbit: 417 x 422 km, 51.6° (Epoch: 07 December)

Event Time Altitude Azimuth Distance (km) Brightness Sun altitude
Exits shadow 05:15:51 17° 95° (E) 1,128 -0.9 -28.8°
Drops below altitude 10° 05:17:00 10° 81° (E) 1,499 0.0 -28.6°
Sets 05:19:17 0° 68° (ENE) 2,365 1.3 -28.2°
